Weather in Lenino

Russia / Penza Oblast     53°01′59″N   44°53′32″E
temp.,
°C
wind,
m/s
gust,
m/s
humid.,
%
clouds,
%
prec.,
mm/h
press.,
hPa
HPBL,
m
22 may, sun
sun2200:00+5s226796 0.0 100732
03:00+5s3468100 0.0 100584
06:00+7s3673100 0.0 1002173
09:00+12s225683 0.0 1000927
12:00+12e2251100 0.2 9991495
15:00+13nne2252100 0.4 9981514
18:00+11nne696694 0.3 998556
21:00+7nne51070100 0.3 999358
23 may, mon
mon2300:00+5nne4873100 0.0 999322
03:00+1n37875 0.0 1000148
06:00+3n46765 0.0 1001327
09:00+7nnw555922 0.0 10011185
12:00+8nw5552100 0.0 10021725
15:00+7nw6655100 0.0 10031491
18:00+6wnw576483 0.0 10041130
21:00+3w357652 0.1 100577
24 may, tue
tue2400:00+2sw48835 0.0 1006159
03:00+2sw513825 0.0 1005288
06:00+4wsw611795 0.0 1005352
09:00+10w7105692 0.0 10051359
12:00+12w684576 0.0 10052167
15:00+13w7849100 0.1 10051995
18:00+7w2681100 0.6 1008773
21:00+5nw368871 0.8 1009158
25 may, wed
wed2500:00+3wnw359430 0.0 1010114
03:00+1nw33945 0.0 101167
06:00+3nnw36795 0.0 1013304
09:00+7nnw456064 0.0 10131342
12:00+8nw555799 0.1 10141338
15:00+9nw565775 0.2 10141441
18:00+8nw456698 0.1 10151003
21:00+4wnw35845 0.3 101672
26 may, thu
thu2600:00+2w228750 0.0 101623
03:00+2w228783 0.0 101641
06:00+4wsw35805 0.0 1016215
09:00+9wsw455865 0.0 10141020
12:00+13wsw5757100 0.0 10121469
15:00+14sw697148 0.0 10101171
18:00+13sw61283100 1.4 1007441
21:00+12wsw51292100 2.1 1006445